This demonstration page uses our WeatherBlox Daily Observations layout. Learn more.

Left ArrowRight Arrow

38.20091, -84.87328

Hourly Observations for September 22, 2022

Temp ( °F °C ) Dew Point ( °F °C ) Humidity (%) Winds ( mph kmh ) Pressure ( in mb ) Visibility ( mi km ) Precip ( " mm )
12:53 am 00:53 Clear 73 22.8 68 20 84 84 Calm 29.84 1011 10 16 0.00 0.00
1:53 am 01:53 Mostly Clear 71 21.7 67 19.4 87 87 Calm 29.83 1010 10 16 0.00 0.00
2:53 am 02:53 Mostly Cloudy 74 23.3 67 19.4 79 79 W 3 6 29.84 1010 10 16 0.00 0.00
3:53 am 03:53 Mostly Cloudy 75 23.9 66 18.9 74 74 WNW 6 9 29.84 1011 10 16 0.00 0.00
4:53 am 04:53 Cloudy 74 23.3 67 19.4 79 79 NW 8 13 29.85 1011 10 16 0.00 0.00
5:53 am 05:53 Partly Cloudy 72 22.2 66 18.9 82 82 NW 8 13 29.86 1011 10 16 0.00 0.00
6:53 am 06:53 Cloudy 71 21.7 59 15 66 66 NNW 13 20 29.90 1013 10 16 0.00 0.00
7:53 am 07:53 Cloudy 68 20 53 11.7 59 59 N 13 20 29.95 1014 10 16 0.00 0.00
8:53 am 08:53 Cloudy 66 18.9 52 11.1 61 61 NNW 8 13 29.98 1015 10 16 0.00 0.00
9:53 am 09:53 Mostly Sunny 68 20 54 12.2 61 61 NNW 10 17 29.99 1016 10 16 0.00 0.00
10:53 am 10:53 Sunny 68 20 52 11.1 57 57 N 9 15 30.02 1017 10 16 0.00 0.00
11:53 am 11:53 Mostly Cloudy 71 21.7 50 10 47 47 NNW 14 22 30.03 1017 10 16 0.00 0.00
12:53 pm 12:53 Sunny 71 21.7 49 9.4 45 45 NNW 13 20 30.04 1017 10 16 0.00 0.00
1:53 pm 13:53 Sunny 72 22.2 48 8.9 43 43 NNW 13 20 30.04 1017 10 16 0.00 0.00
2:53 pm 14:53 Mostly Sunny 74 23.3 49 9.4 41 41 NNW 10 17 30.01 1016 10 16 0.00 0.00
3:53 pm 15:53 Mostly Sunny 74 23.3 48 8.9 40 40 N 9 15 30.01 1016 10 16 0.00 0.00
4:53 pm 16:53 Mostly Sunny 73 22.8 47 8.3 39 39 NW 15 24 30.02 1017 10 16 0.00 0.00
5:53 pm 17:53 Sunny 71 21.7 47 8.3 42 42 NW 8 13 30.03 1017 10 16 0.00 0.00
6:53 pm 18:53 Sunny 70 21.1 46 7.8 42 42 NNW 8 13 30.04 1017 10 16 0.00 0.00
7:53 pm 19:53 Clear 66 18.9 46 7.8 48 48 N 5 7 30.06 1018 10 16 0.00 0.00
8:53 pm 20:53 Clear 64 17.8 46 7.8 52 52 N 5 7 30.08 1019 10 16 0.00 0.00
9:53 pm 21:53 Clear 61 16.1 46 7.8 58 58 N 5 7 30.09 1019 10 16 0.00 0.00
10:53 pm 22:53 Clear 60 15.6 45 7.2 57 57 N 7 11 30.12 1020 10 16 0.00 0.00
11:53 pm 23:53 Clear 57 13.9 45 7.2 64 64 Calm 30.13 1020 10 16 0.00 0.00

Powered by AerisWeather